SCP
0 0 0 0 0 0 0 0 0 0 0 0 0 0 0 0 0 0 0 0 0 0 0 0 0 0 0 0 0 0 0 0 0 0 0 0 0 0 0 0 0 0 0
0 0 0 0 -0 0 0 0 0 0 0 0 0 0 0 0 0 0 0 0 0 0 0 0 0 0 0 0 0 0 0 0 0 0 0 0 0 0 0 0 0 0 0
0 0 0 0 0 -0 -0 0 0 0 0 0 0 0 0 0 0 0 0 0 0 0 0 0 0 0 0 0 0 0 0 0 0 0 0 0 0 0 0 0 0 0 0
0 0 0 0 0 0 0 0 0 0 0 0 0 0 0 0 0 0 0 0 0 0 0 0 0 0 0 0 0 0 0 0 0 0 0 0 0 0 0 0 0 0 0
0 0 0 0 0 0 0 0 0 0 0 0 0 0 0 0 0 0 0 0 0 0 0 0 0 0 0 0 0 0 0 0 0 0 0 0 0 0 0 0 0 0 0
0 0 0 0 0 0 0 0 0 0 0 0 0 0 0 0 0 0 0 0 0 0 0 0 0 0 0 0 0 0 0 0 0 0 0 0 0 0 0 0 0 0 0
0 0 0 0 0 0 0 0 0 0 0 0 0 0 0 0 0 0 0 0 0 0 0 0 0 0 0 0 0 0 0 0 0 0 0 0 0 0 0 0 0 0 0
0 0 0 0 0 0 0 0 0 0 0 0 0 0 0 0 0 0 0 0 0 0 0 0 0 0 0 0 0 0 0 0 0 0 0 0 0 0 0 0 0 0 0
0 0 0 0 0 0 0 0 0 0 0 0 0 0 0 0 0 0 0 0 0 0 0 0 0 0 0 0 0 0 0 0 0 0 0 0 0 0 0 0 0 0 0
0 0 0 0 0 0 0 0 0 0 0 0 0 0 0 0 0 0 0 0 0 0 0 0 0 0 0 0 0 0 0 0 0 0 0 0 0 0 0 0 0 0 0
0 0 0 0 0 0 0 0 0 0 0 0 0 0 0 0 0 0 0 0 0 0 0 0 0 0 0 0 0 0 0 0 0 0 0 0 0 0 0 0 0 0 0
0 0 0 0 0 0 0 0 0 0 0 0 0 0 0 0 0 0 0 0 0 0 0 0 0 0 0 0 0 0 0 0 0 0 0 0 0 0 0 0 0 0 0
0 0 0 0 0 0 0 0 0 0 0 0 0 0 0 0 0 0 0 0 0 0 0 0 0 0 0 0 0 0 0 0 0 0 0 0 0 0 0 0 0 0 0
0 0 0 0 0 0 0 0 0 0 0 0 0 0 0 0 0 0 0 0 0 0 0 0 0 0 0 0 0 0 0 0 0 0 0 0 0 0 0 0 0 0 0
0 0 0 0 0 0 0 0 0 0 0 0 0 0 0 0 0 0 0 0 0 0 0 0 0 0 0 0 0 0 0 0 0 0 0 0 0 0 0 0 0 0 0
0 0 0 0 0 0 0 0 0 0 0 0 0 0 0 0 0 0 0 0 0 0 0 0 0 0 0 0 0 0 0 0 0 0 0 0 0 0 0 0 0 0 0
0 0 0 0 0 0 0 0 0 0 0 0 0 0 0 0 0 0 0 0 0 0 0 0 0 0 0 0 0 0 0 0 0 0 0 0 0 0 0 0 0 0 0
0 0 0 0 0 0 0 0 0 0 0 0 0 0 0 0 0 0 0 0 0 0 0 0 0 0 0 0 0 0 0 0 0 0 0 0 0 0 0 0 0 0 0
0 0 0 0 0 0 0 0 0 0 0 0 0 0 0 0 0 0 0 0 0 0 0 0 0 0 0 0 0 0 0 0 0 0 0 0 0 0 0 0 0 0 0
0 0 0 0 0 0 0 0 0 0 0 0 0 0 0 0 0 0 0 0 0 0 0 0 0 0 0 0 0 0 0 0 0 0 0 0 0 0 0 0 0 0 0
0 0 0 0 0 0 0 0 0 0 0 0 0 0 0 0 0 0 0 0 0 0 0 0 0 0 0 0 0 0 0 0 0 0 0 0 0 0 0 0 0 0 0
0 0 0 0 0 0 0 0 0 0 0 0 0 0 0 0 0 0 0 0 0 0 0 0 0 0 0 0 0 0 0 0 0 0 0 0 0 0 0 0 0 0 0
0 0 0 0 0 0 0 0 0 0 0 0 0 0 0 0 0 0 0 0 0 0 0 0 0 0 0 0 0 0 0 0 0 0 0 0 0 0 0 0 0 0 0
0 0 0 0 0 0 0 0 0 0 0 0 0 0 0 0 0 0 0 0 0 0 0 0 0 0 0 0 0 0 0 0 0 0 0 0 0 0 0 0 0 0 0
0 0 0 0 0 0 0 0 0 0 0 0 0 0 0 0 0 0 0 0 0 0 0 0 0 0 0 0 0 0 0 0 0 0 0 0 0 0 0 0 0 0 0
0 0 0 0 0 0 0 0 0 0 0 0 0 0 0 0 0 0 0 0 0 0 0 0 0 0 0 0 0 0 0 0 0 0 0 0 0 0 0 0 0 0 0
Wind_Speed_500mb
24 31 25 18 13 8 6 7 7 13 8 8 8 13 17 21 21 20 21 22 20 21 20 21 23 24 21 21 20 18 15 14 18 20 22 24 24 26 23 20 18 14 20
28 29 26 27 21 17 13 19 17 12 4 7 15 20 26 25 23 22 22 20 20 22 22 22 22 21 22 23 21 20 21 20 21 22 21 21 23 24 23 21 19 26 24
14 17 19 24 21 19 18 19 10 6 7 14 18 21 27 28 24 24 24 24 23 23 24 26 25 23 24 23 22 23 23 22 22 23 21 18 15 34 29 26 26 25 25
13 11 15 16 14 12 14 16 11 8 9 13 17 20 21 24 26 28 27 27 26 27 29 30 30 29 29 28 29 28 26 26 26 25 20 17 18 27 33 31 30 30 29
12 11 15 16 15 13 14 14 14 13 14 15 16 17 21 25 29 30 31 31 29 29 28 29 30 30 30 31 31 32 32 31 31 30 28 24 30 22 36 33 35 34 32
12 14 14 15 16 16 19 18 18 20 22 24 26 28 30 33 35 36 36 35 34 33 33 33 33 33 35 35 36 38 38 36 33 31 32 31 37 36 35 36 39 38 35
9 12 16 18 20 22 23 25 27 28 28 29 30 29 31 33 35 36 37 35 34 34 35 36 36 37 37 38 39 39 41 41 41 38 38 37 38 43 39 39 38 42 40
14 16 18 22 25 29 32 35 36 35 35 34 33 32 33 34 35 36 36 37 37 37 38 38 39 39 40 41 42 42 42 41 40 41 42 41 40 40 40 41 42 38 44
20 22 25 29 35 43 43 38 33 32 32 31 31 32 34 36 37 39 40 41 44 44 44 44 44 45 45 45 45 45 46 45 46 44 44 44 44 42 42 42 43 44 36
23 27 31 34 36 33 34 36 34 32 32 33 33 34 34 36 37 38 39 41 43 45 47 48 48 49 49 49 49 50 50 50 49 45 48 45 49 44 44 44 45 46 45
15 26 31 30 31 33 32 35 35 34 32 31 32 34 34 34 37 39 42 42 44 45 47 49 50 52 54 54 55 52 50 49 49 53 54 54 57 54 52 49 46 46 47
19 28 28 30 33 33 34 31 28 27 27 29 33 34 35 36 38 41 42 45 46 47 47 49 51 52 49 44 47 51 50 51 56 57 57 59 59 58 58 57 56 53 48
21 25 28 30 32 31 29 28 25 24 24 25 32 34 34 34 35 36 37 38 42 39 39 44 43 41 43 52 53 53 54 56 56 57 60 63 62 61 61 61 60 58 56
18 23 29 30 31 31 28 26 26 25 26 27 31 33 34 35 37 40 41 43 42 41 46 46 49 50 48 48 50 53 56 57 60 61 66 66 67 63 63 64 63 62 60
21 25 28 31 30 28 26 23 22 22 23 26 31 35 38 41 45 48 50 50 49 49 52 56 57 57 58 56 50 50 55 57 58 59 64 68 71 69 67 66 66 65 63
24 26 27 27 25 23 22 22 22 24 27 29 34 39 42 45 49 51 54 54 52 56 61 62 60 61 62 61 61 54 55 58 61 61 62 62 63 72 72 70 70 69 66
24 24 23 23 22 21 22 23 26 30 33 34 39 43 48 52 56 59 59 59 59 65 67 65 64 64 64 63 64 64 63 62 61 62 63 65 66 63 72 73 72 72 71
26 25 24 23 24 24 26 28 30 33 34 39 42 47 52 57 58 60 61 60 64 69 68 66 65 67 69 68 68 66 69 70 70 68 65 69 71 70 70 73 75 73 74
27 26 26 27 28 29 30 32 34 36 40 44 47 51 55 58 60 64 66 67 69 74 72 68 63 63 65 67 71 64 66 72 76 77 78 75 75 74 73 78 77 78 77
30 29 30 30 33 34 35 36 37 36 44 43 49 50 57 59 64 70 72 70 69 69 65 59 64 60 60 60 62 67 78 69 63 73 76 81 70 69 69 71 71 78 82
33 32 33 34 35 36 38 41 45 44 51 43 49 49 59 65 69 73 73 70 67 64 61 59 58 54 56 54 62 63 70 80 68 56 51 53 53 56 60 63 66 69 74
33 35 35 34 35 37 42 46 49 50 54 56 54 55 65 68 74 74 71 69 62 63 56 51 49 56 55 49 52 62 54 70 65 29 31 42 45 42 42 48 54 62 68
33 33 34 36 38 40 43 47 47 51 47 43 45 65 70 79 81 75 70 67 62 53 53 50 49 49 58 51 44 47 43 34 68 72 84 80 67 69 62 58 63 58 56
35 37 36 38 38 37 41 44 46 46 44 46 52 61 65 66 64 57 60 57 56 54 53 53 48 51 52 58 53 49 56 67 68 83 60 69 68 63 61 67 71 60 63
31 31 36 37 35 37 42 47 47 44 47 51 56 59 61 61 54 57 54 54 54 55 57 57 57 56 56 59 58 57 56 60 63 69 83 64 61 61 61 64 69 67 61
28 36 32 35 37 35 40 48 47 49 53 57 59 60 65 60 63 55 53 56 56 58 59 60 62 61 60 61 62 62 60 60 62 62 71 78 70 67 68 73 76 76 82
Wind_Direction_500mb
27 28 14 21 21 38 57 70 106 123 85 52 22 354 345 337 335 343 350 349 343 337 338 335 331 331 330 327 328 320 304 279 267 269 275 284 288 289 287 279 263 264 274
54 44 44 47 52 58 67 102 91 61 66 353 351 335 326 327 336 335 337 339 331 331 331 332 328 322 322 321 318 314 312 304 294 286 282 283 309 289 279 273 269 259 266
54 61 52 53 58 51 39 32 19 9 8 1 342 333 326 323 329 327 325 325 325 324 324 325 323 321 316 314 312 311 308 303 300 298 295 295 284 293 281 274 270 266 264
89 61 35 25 20 30 3 2 9 1 332 327 324 327 323 328 330 328 325 323 323 321 319 318 316 314 313 312 312 311 308 307 304 299 293 279 282 291 286 282 279 275 269
65 48 30 10 7 17 12 4 354 346 340 335 326 322 324 324 323 323 321 320 318 317 315 314 312 310 307 307 307 305 305 305 304 300 292 287 275 274 279 281 280 278 277
53 47 35 18 6 4 357 350 343 331 327 322 319 318 315 313 311 310 309 308 309 309 310 309 308 307 306 305 304 304 302 301 299 294 288 281 287 276 283 279 280 280 277
3 348 347 347 338 336 334 332 330 323 319 315 313 311 307 307 308 307 306 306 305 304 304 303 302 302 302 301 301 299 297 297 297 295 289 285 283 282 283 281 279 283 277
337 336 333 329 326 324 322 322 315 312 312 310 308 306 305 306 307 308 309 309 308 306 303 301 299 297 295 294 294 295 295 295 293 291 288 287 284 283 281 281 280 278 283
324 320 323 323 323 321 318 324 320 317 318 315 315 315 314 314 314 312 311 310 309 308 308 306 304 301 299 298 296 294 294 294 294 292 287 286 285 285 282 279 277 276 272
300 310 312 315 321 328 331 326 326 324 321 318 317 317 317 315 315 312 310 310 308 307 306 305 304 302 301 298 296 295 294 294 293 287 290 289 282 280 278 278 275 272 269
348 317 314 319 323 326 326 323 324 321 317 315 314 314 317 317 315 316 313 313 310 308 307 306 305 305 304 303 300 296 294 292 287 287 285 283 286 286 283 277 271 269 267
314 305 308 315 320 326 326 329 329 328 327 325 321 322 322 323 320 322 321 320 316 314 312 309 308 305 306 301 301 301 299 295 292 289 284 281 283 283 283 282 278 272 266
304 308 312 319 324 326 328 332 333 333 333 330 323 326 327 328 326 328 328 325 324 324 319 317 314 311 302 302 300 295 292 290 289 287 285 285 285 282 280 279 277 274 269
311 316 319 321 323 324 325 325 326 328 330 330 330 332 334 333 332 331 330 328 324 322 317 316 313 310 308 303 298 296 293 291 289 285 283 283 284 281 279 277 274 273 271
304 310 313 318 322 326 330 334 336 336 337 336 332 332 332 331 328 326 324 323 319 315 313 312 309 306 302 302 297 292 290 289 286 283 284 285 283 281 277 276 274 272 269
300 304 310 317 324 329 331 333 333 334 332 330 326 325 325 323 323 322 321 319 316 313 314 313 309 306 301 299 294 288 285 284 283 282 279 278 276 283 282 276 272 269 267
291 299 307 310 311 316 320 323 324 324 324 323 323 324 324 327 326 326 323 320 315 314 314 311 308 304 300 297 293 291 288 280 278 279 278 278 276 274 280 282 275 269 267
282 290 297 299 305 308 309 312 312 313 317 319 321 321 321 323 321 322 321 319 315 314 313 309 306 302 300 298 295 290 286 285 280 274 271 274 274 273 271 274 277 272 266
279 285 294 300 298 300 303 306 311 314 316 319 317 317 318 320 321 323 322 320 316 315 313 310 303 302 300 298 296 294 288 284 281 281 275 269 266 268 269 272 271 270 269
278 286 292 293 294 298 304 311 314 316 312 316 315 315 317 321 321 321 319 316 313 311 307 302 301 300 297 300 297 291 290 295 285 276 279 279 277 271 267 266 268 268 269
278 283 284 286 293 302 308 314 315 316 319 317 317 316 316 317 317 318 317 315 313 310 306 305 302 301 301 301 302 301 296 297 300 289 287 296 287 282 273 271 268 263 262
270 278 278 284 292 301 306 312 315 317 318 315 315 310 314 315 317 317 315 312 309 305 302 301 299 300 298 302 300 305 307 300 306 286 278 280 285 271 274 278 273 268 258
269 272 276 283 291 299 304 314 317 316 315 313 309 312 315 317 318 315 311 308 305 302 300 298 298 297 298 295 292 289 302 291 308 287 287 283 291 288 286 286 277 273 273
262 265 277 284 296 306 310 315 316 316 312 309 311 308 309 310 308 304 305 303 301 300 298 296 296 289 291 292 292 283 278 283 292 299 292 291 293 293 289 278 277 265 261
258 273 281 293 302 306 311 314 316 312 310 309 310 308 306 308 301 300 299 299 299 297 296 295 295 292 288 287 288 288 283 283 282 283 290 295 292 290 287 284 279 275 270
268 277 285 293 300 310 311 314 315 314 314 313 313 309 308 304 304 302 299 296 295 296 295 293 292 291 289 286 285 284 282 282 284 285 288 291 291 291 288 286 279 276 274
Wind_Speed_850mb
24 31 25 18 13 8 6 7 7 13 8 8 8 13 17 21 21 20 21 22 20 21 20 21 23 24 21 21 20 18 15 14 18 20 22 24 24 26 23 20 18 14 20
28 29 26 27 21 17 13 19 17 12 4 7 15 20 26 25 23 22 22 20 20 22 22 22 22 21 22 23 21 20 21 20 21 22 21 21 23 24 23 21 19 26 24
14 17 19 24 21 19 18 19 10 6 7 14 18 21 27 28 24 24 24 24 23 23 24 26 25 23 24 23 22 23 23 22 22 23 21 18 15 34 29 26 26 25 25
13 11 15 16 14 12 14 16 11 8 9 13 17 20 21 24 26 28 27 27 26 27 29 30 30 29 29 28 29 28 26 26 26 25 20 17 18 27 33 31 30 30 29
12 11 15 16 15 13 14 14 14 13 14 15 16 17 21 25 29 30 31 31 29 29 28 29 30 30 30 31 31 32 32 31 31 30 28 24 30 22 36 33 35 34 32
12 14 14 15 16 16 19 18 18 20 22 24 26 28 30 33 35 36 36 35 34 33 33 33 33 33 35 35 36 38 38 36 33 31 32 31 37 36 35 36 39 38 35
9 12 16 18 20 22 23 25 27 28 28 29 30 29 31 33 35 36 37 35 34 34 35 36 36 37 37 38 39 39 41 41 41 38 38 37 38 43 39 39 38 42 40
14 16 18 22 25 29 32 35 36 35 35 34 33 32 33 34 35 36 36 37 37 37 38 38 39 39 40 41 42 42 42 41 40 41 42 41 40 40 40 41 42 38 44
20 22 25 29 35 43 43 38 33 32 32 31 31 32 34 36 37 39 40 41 44 44 44 44 44 45 45 45 45 45 46 45 46 44 44 44 44 42 42 42 43 44 36
23 27 31 34 36 33 34 36 34 32 32 33 33 34 34 36 37 38 39 41 43 45 47 48 48 49 49 49 49 50 50 50 49 45 48 45 49 44 44 44 45 46 45
15 26 31 30 31 33 32 35 35 34 32 31 32 34 34 34 37 39 42 42 44 45 47 49 50 52 54 54 55 52 50 49 49 53 54 54 57 54 52 49 46 46 47
19 28 28 30 33 33 34 31 28 27 27 29 33 34 35 36 38 41 42 45 46 47 47 49 51 52 49 44 47 51 50 51 56 57 57 59 59 58 58 57 56 53 48
21 25 28 30 32 31 29 28 25 24 24 25 32 34 34 34 35 36 37 38 42 39 39 44 43 41 43 52 53 53 54 56 56 57 60 63 62 61 61 61 60 58 56
18 23 29 30 31 31 28 26 26 25 26 27 31 33 34 35 37 40 41 43 42 41 46 46 49 50 48 48 50 53 56 57 60 61 66 66 67 63 63 64 63 62 60
21 25 28 31 30 28 26 23 22 22 23 26 31 35 38 41 45 48 50 50 49 49 52 56 57 57 58 56 50 50 55 57 58 59 64 68 71 69 67 66 66 65 63
24 26 27 27 25 23 22 22 22 24 27 29 34 39 42 45 49 51 54 54 52 56 61 62 60 61 62 61 61 54 55 58 61 61 62 62 63 72 72 70 70 69 66
24 24 23 23 22 21 22 23 26 30 33 34 39 43 48 52 56 59 59 59 59 65 67 65 64 64 64 63 64 64 63 62 61 62 63 65 66 63 72 73 72 72 71
26 25 24 23 24 24 26 28 30 33 34 39 42 47 52 57 58 60 61 60 64 69 68 66 65 67 69 68 68 66 69 70 70 68 65 69 71 70 70 73 75 73 74
27 26 26 27 28 29 30 32 34 36 40 44 47 51 55 58 60 64 66 67 69 74 72 68 63 63 65 67 71 64 66 72 76 77 78 75 75 74 73 78 77 78 77
30 29 30 30 33 34 35 36 37 36 44 43 49 50 57 59 64 70 72 70 69 69 65 59 64 60 60 60 62 67 78 69 63 73 76 81 70 69 69 71 71 78 82
33 32 33 34 35 36 38 41 45 44 51 43 49 49 59 65 69 73 73 70 67 64 61 59 58 54 56 54 62 63 70 80 68 56 51 53 53 56 60 63 66 69 74
33 35 35 34 35 37 42 46 49 50 54 56 54 55 65 68 74 74 71 69 62 63 56 51 49 56 55 49 52 62 54 70 65 29 31 42 45 42 42 48 54 62 68
33 33 34 36 38 40 43 47 47 51 47 43 45 65 70 79 81 75 70 67 62 53 53 50 49 49 58 51 44 47 43 34 68 72 84 80 67 69 62 58 63 58 56
35 37 36 38 38 37 41 44 46 46 44 46 52 61 65 66 64 57 60 57 56 54 53 53 48 51 52 58 53 49 56 67 68 83 60 69 68 63 61 67 71 60 63
31 31 36 37 35 37 42 47 47 44 47 51 56 59 61 61 54 57 54 54 54 55 57 57 57 56 56 59 58 57 56 60 63 69 83 64 61 61 61 64 69 67 61
28 36 32 35 37 35 40 48 47 49 53 57 59 60 65 60 63 55 53 56 56 58 59 60 62 61 60 61 62 62 60 60 62 62 71 78 70 67 68 73 76 76 82
Wind_Direction_850mb
27 28 14 21 21 38 57 70 106 123 85 52 22 354 345 337 335 343 350 349 343 337 338 335 331 331 330 327 328 320 304 279 267 269 275 284 288 289 287 279 263 264 274
54 44 44 47 52 58 67 102 91 61 66 353 351 335 326 327 336 335 337 339 331 331 331 332 328 322 322 321 318 314 312 304 294 286 282 283 309 289 279 273 269 259 266
54 61 52 53 58 51 39 32 19 9 8 1 342 333 326 323 329 327 325 325 325 324 324 325 323 321 316 314 312 311 308 303 300 298 295 295 284 293 281 274 270 266 264
89 61 35 25 20 30 3 2 9 1 332 327 324 327 323 328 330 328 325 323 323 321 319 318 316 314 313 312 312 311 308 307 304 299 293 279 282 291 286 282 279 275 269
65 48 30 10 7 17 12 4 354 346 340 335 326 322 324 324 323 323 321 320 318 317 315 314 312 310 307 307 307 305 305 305 304 300 292 287 275 274 279 281 280 278 277
53 47 35 18 6 4 357 350 343 331 327 322 319 318 315 313 311 310 309 308 309 309 310 309 308 307 306 305 304 304 302 301 299 294 288 281 287 276 283 279 280 280 277
3 348 347 347 338 336 334 332 330 323 319 315 313 311 307 307 308 307 306 306 305 304 304 303 302 302 302 301 301 299 297 297 297 295 289 285 283 282 283 281 279 283 277
337 336 333 329 326 324 322 322 315 312 312 310 308 306 305 306 307 308 309 309 308 306 303 301 299 297 295 294 294 295 295 295 293 291 288 287 284 283 281 281 280 278 283
324 320 323 323 323 321 318 324 320 317 318 315 315 315 314 314 314 312 311 310 309 308 308 306 304 301 299 298 296 294 294 294 294 292 287 286 285 285 282 279 277 276 272
300 310 312 315 321 328 331 326 326 324 321 318 317 317 317 315 315 312 310 310 308 307 306 305 304 302 301 298 296 295 294 294 293 287 290 289 282 280 278 278 275 272 269
348 317 314 319 323 326 326 323 324 321 317 315 314 314 317 317 315 316 313 313 310 308 307 306 305 305 304 303 300 296 294 292 287 287 285 283 286 286 283 277 271 269 267
314 305 308 315 320 326 326 329 329 328 327 325 321 322 322 323 320 322 321 320 316 314 312 309 308 305 306 301 301 301 299 295 292 289 284 281 283 283 283 282 278 272 266
304 308 312 319 324 326 328 332 333 333 333 330 323 326 327 328 326 328 328 325 324 324 319 317 314 311 302 302 300 295 292 290 289 287 285 285 285 282 280 279 277 274 269
311 316 319 321 323 324 325 325 326 328 330 330 330 332 334 333 332 331 330 328 324 322 317 316 313 310 308 303 298 296 293 291 289 285 283 283 284 281 279 277 274 273 271
304 310 313 318 322 326 330 334 336 336 337 336 332 332 332 331 328 326 324 323 319 315 313 312 309 306 302 302 297 292 290 289 286 283 284 285 283 281 277 276 274 272 269
300 304 310 317 324 329 331 333 333 334 332 330 326 325 325 323 323 322 321 319 316 313 314 313 309 306 301 299 294 288 285 284 283 282 279 278 276 283 282 276 272 269 267
291 299 307 310 311 316 320 323 324 324 324 323 323 324 324 327 326 326 323 320 315 314 314 311 308 304 300 297 293 291 288 280 278 279 278 278 276 274 280 282 275 269 267
282 290 297 299 305 308 309 312 312 313 317 319 321 321 321 323 321 322 321 319 315 314 313 309 306 302 300 298 295 290 286 285 280 274 271 274 274 273 271 274 277 272 266
279 285 294 300 298 300 303 306 311 314 316 319 317 317 318 320 321 323 322 320 316 315 313 310 303 302 300 298 296 294 288 284 281 281 275 269 266 268 269 272 271 270 269
278 286 292 293 294 298 304 311 314 316 312 316 315 315 317 321 321 321 319 316 313 311 307 302 301 300 297 300 297 291 290 295 285 276 279 279 277 271 267 266 268 268 269
278 283 284 286 293 302 308 314 315 316 319 317 317 316 316 317 317 318 317 315 313 310 306 305 302 301 301 301 302 301 296 297 300 289 287 296 287 282 273 271 268 263 262
270 278 278 284 292 301 306 312 315 317 318 315 315 310 314 315 317 317 315 312 309 305 302 301 299 300 298 302 300 305 307 300 306 286 278 280 285 271 274 278 273 268 258
269 272 276 283 291 299 304 314 317 316 315 313 309 312 315 317 318 315 311 308 305 302 300 298 298 297 298 295 292 289 302 291 308 287 287 283 291 288 286 286 277 273 273
262 265 277 284 296 306 310 315 316 316 312 309 311 308 309 310 308 304 305 303 301 300 298 296 296 289 291 292 292 283 278 283 292 299 292 291 293 293 289 278 277 265 261
258 273 281 293 302 306 311 314 316 312 310 309 310 308 306 308 301 300 299 299 299 297 296 295 295 292 288 287 288 288 283 283 282 283 290 295 292 290 287 284 279 275 270
268 277 285 293 300 310 311 314 315 314 314 313 313 309 308 304 304 302 299 296 295 296 295 293 292 291 289 286 285 284 282 282 284 285 288 291 291 291 288 286 279 276 274